FW7305 Weather Reports


Display with metric or nautical units.
time (UTC)temp
F
wind
direction
speed
MPH
gust
MPH
rain 1hr
in
rain 24hr
in
rain mn
in
humidity
%
barometer
mb
20260507223108 50 28 3.0 3.0 0.00 0.00 0.00 48 1007.1
20260507222605 50 309 3.0 3.0 0.00 0.00 0.00 47 1007.0
20260507222101 49 348 2.0 3.0 0.00 0.00 0.00 50 1007.2
20260507221558 50 331 4.0 5.0 0.00 0.00 0.00 50 1007.2
20260507221055 51 303 4.0 6.0 0.00 0.00 0.00 48 1007.2
20260507220552 51 49 1.0 1.0 0.00 0.00 0.00 43 1006.9
20260507220049 52 255 2.0 2.0 0.00 0.00 0.00 41 1006.6
20260507215545 52 279 4.0 5.0 0.00 0.00 0.00 38 1007.0
20260507215044 53 268 5.0 8.0 0.00 0.00 0.00 37 1006.6
20260507214540 53 239 3.0 5.0 0.00 0.00 0.00 39 1006.6
20260507214036 55 240 10.0 14.0 0.00 0.00 0.00 37 1006.7
20260507213533 54 247 2.0 2.0 0.00 0.00 0.00 39 1006.5
20260507213030 54 222 6.0 7.0 0.00 0.00 0.00 37 1006.6
20260507212526 53 280 2.0 2.0 0.00 0.00 0.00 40 1006.6
20260507212023 53 269 8.0 9.0 0.00 0.00 0.00 35 1006.5
20260507211520 53 281 5.0 8.0 0.00 0.00 0.00 36 1006.6
20260507211016 53 359 5.0 7.0 0.00 0.00 0.00 36 1006.5
20260507210513 53 265 6.0 9.0 0.00 0.00 0.00 37 1006.4
20260507210010 54 301 3.0 3.0 0.00 0.00 0.00 38 1006.4
20260507205507 54 209 2.0 3.0 0.00 0.00 0.00 40 1006.2
20260507205003 54 263 3.0 3.0 0.00 0.00 0.00 37 1006.5
20260507204459 54 177 2.0 5.0 0.00 0.00 0.00 39 1006.5
20260507203957 55 340 3.0 3.0 0.00 0.00 0.00 40 1006.3
20260507203454 53 70 2.0 5.0 0.00 0.00 0.00 39 1006.6
20260507202951 53 332 4.0 5.0 0.00 0.00 0.00 37 1006.1
20260507202447 53 288 3.0 5.0 0.00 0.00 0.00 40 1006.4
20260507201943 52 10 3.0 3.0 0.00 0.00 0.00 40 1006.3
20260507201438 53 273 11.0 14.0 0.00 0.00 0.00 36 1006.2
20260507200936 53 261 2.0 3.0 0.00 0.00 0.00 41 1006.4
20260507200431 53 300 3.0 3.0 0.00 0.00 0.00 38 1006.3
20260507195927 53 236 2.0 5.0 0.00 0.00 0.00 38 1006.5
20260507195425 54 231 6.0 8.0 0.00 0.00 0.00 37 1006.4
20260507194922 55 270 4.0 6.0 0.00 0.00 0.00 37 1006.3
20260507194418 55 254 4.0 6.0 0.00 0.00 0.00 38 1006.5
20260507193914 53 258 7.0 8.0 0.00 0.00 0.00 37 1006.4
20260507193412 52 228 4.0 5.0 0.00 0.00 0.00 38 1006.2
20260507192909 52 319 6.0 8.0 0.00 0.00 0.00 37 1006.5
20260507192404 53 323 7.0 9.0 0.00 0.00 0.00 37 1006.5
20260507191901 52 192 1.0 1.0 0.00 0.00 0.00 43 1006.4
20260507191357 52 324 7.0 9.0 0.00 0.00 0.00 39 1006.3
20260507190854 52 353 3.0 3.0 0.00 0.00 0.00 40 1006.4
20260507190352 52 298 3.0 6.0 0.00 0.00 0.00 41 1006.6
20260507185851 52 217 4.0 6.0 0.00 0.00 0.00 40 1006.5
20260507185348 52 254 4.0 10.0 0.00 0.00 0.00 39 1006.4
20260507184844 52 301 7.0 14.0 0.00 0.00 0.00 38 1006.5
20260507184343 52 228 8.0 11.0 0.00 0.00 0.00 38 1006.4
20260507183839 52 261 7.0 13.0 0.00 0.00 0.00 38 1006.4
20260507183336 52 292 7.0 9.0 0.00 0.00 0.00 38 1006.6
20260507182834 51 244 8.0 11.0 0.00 0.00 0.00 39 1006.5
20260507182329 51 264 4.0 5.0 0.00 0.00 0.00 39 1006.2
20260507181826 51 16 5.0 7.0 0.00 0.00 0.00 41 1006.3
20260507181322 51 244 3.0 5.0 0.00 0.00 0.00 41 1006.3
20260507180819 52 243 7.0 14.0 0.00 0.00 0.00 40 1006.5
20260507180316 53 263 12.0 17.0 0.00 0.00 0.00 35 1006.2
20260507175811 52 239 7.0 14.0 0.00 0.00 0.00 39 1006.5
20260507175308 53 323 8.0 9.0 0.00 0.00 0.00 36 1006.3
20260507174805 55 261 10.0 13.0 0.00 0.00 0.00 36 1006.3
20260507174304 54 205 3.0 5.0 0.00 0.00 0.00 39 1006.5
20260507173801 54 248 9.0 10.0 0.00 0.00 0.00 38 1006.3
20260507173258 54 234 4.0 7.0 0.00 0.00 0.00 40 1006.2
20260507172754 53 224 9.0 10.0 0.00 0.00 0.00 39 1006.2
20260507172251 53 245 5.0 9.0 0.00 0.00 0.00 39 1006.1
20260507171746 53 265 10.0 14.0 0.00 0.00 0.00 39 1006.4
20260507171244 53 262 7.0 10.0 0.00 0.00 0.00 39 1006.3
20260507170740 52 248 9.0 16.0 0.00 0.00 0.00 38 1006.2
20260507170237 52 238 10.0 13.0 0.00 0.00 0.00 38 1006.5
20260507165733 52 259 5.0 8.0 0.00 0.00 0.00 41 1006.4
20260507165229 52 232 6.0 10.0 0.00 0.00 0.00 38 1006.3
20260507164725 52 257 16.0 20.0 0.00 0.00 0.00 40 1006.4
20260507164223 53 223 7.0 11.0 0.00 0.00 0.00 43 1006.1
20260507163720 53 237 9.0 14.0 0.00 0.00 0.00 44 1006.4
20260507163218 52 218 5.0 7.0 0.00 0.00 0.00 48 1006.3
20260507162713 51 230 4.0 6.0 0.00 0.00 0.00 49 1006.3
20260507162210 52 262 7.0 11.0 0.00 0.00 0.00 46 1006.5
20260507161706 52 250 10.0 14.0 0.00 0.00 0.00 47 1006.6
20260507161203 51 255 7.0 9.0 0.00 0.00 0.00 48 1006.4
20260507160658 51 329 5.0 7.0 0.00 0.00 0.00 49 1006.4
20260507160155 50 211 7.0 9.0 0.00 0.00 0.00 48 1006.7
20260507155651 50 278 10.0 14.0 0.00 0.00 0.00 48 1006.5
20260507155142 51 263 12.0 14.0 0.00 0.00 0.00 49 1006.5
20260507154639 50 236 8.0 11.0 0.00 0.00 0.00 50 1006.6
20260507154137 51 246 22.0 25.0 0.00 0.00 0.00 48 1006.7
20260507153633 50 231 7.0 11.0 0.00 0.00 0.00 51 1006.6
20260507153129 50 262 7.0 11.0 0.00 0.00 0.00 50 1006.6
20260507152626 50 9 10.0 18.0 0.00 0.00 0.00 52 1006.6
20260507152121 50 303 9.0 15.0 0.00 0.00 0.00 51 1006.7
20260507151618 50 241 6.0 7.0 0.00 0.00 0.00 52 1006.8
20260507151115 50 238 5.0 7.0 0.00 0.00 0.00 52 1006.7
20260507150612 49 271 8.0 10.0 0.00 0.00 0.00 51 1006.6
20260507150109 50 259 9.0 13.0 0.00 0.00 0.00 50 1006.9
20260507145604 49 207 9.0 15.0 0.00 0.00 0.00 52 1006.7
20260507145102 48 293 9.0 13.0 0.00 0.00 0.00 53 1007.0
20260507144558 49 258 11.0 18.0 0.00 0.00 0.00 52 1006.8
20260507144056 49 178 8.0 14.0 0.00 0.00 0.00 52 1006.8
20260507143552 49 286 7.0 9.0 0.00 0.00 0.00 52 1006.9
20260507143050 49 304 7.0 8.0 0.00 0.00 0.00 53 1006.9
20260507142550 48 202 4.0 8.0 0.00 0.00 0.00 53 1006.9
20260507142047 48 121 8.0 10.0 0.00 0.00 0.00 54 1007.1
20260507141543 48 236 10.0 13.0 0.00 0.00 0.00 54 1007.0
20260507141040 48 256 8.0 11.0 0.00 0.00 0.00 54 1006.7
20260507140537 48 263 10.0 13.0 0.00 0.00 0.00 54 1006.8
20260507140034 47 187 11.0 18.0 0.00 0.00 0.00 54 1006.8
20260507135531 47 276 11.0 14.0 0.00 0.00 0.00 54 1006.7
20260507135029 48 270 11.0 20.0 0.00 0.00 0.00 53 1007.0
20260507134525 48 182 6.0 9.0 0.00 0.00 0.00 57 1006.7
20260507134020 48 249 8.0 9.0 0.00 0.00 0.00 57 1006.9
20260507133517 47 305 10.0 11.0 0.00 0.00 0.00 56 1006.7
20260507133015 47 242 8.0 11.0 0.00 0.00 0.00 56 1006.7
20260507132511 47 285 11.0 16.0 0.00 0.00 0.00 55 1007.0
20260507132008 47 252 6.0 9.0 0.00 0.00 0.00 56 1006.9
20260507131505 46 272 9.0 13.0 0.00 0.00 0.00 56 1006.9
20260507131002 47 266 4.0 5.0 0.00 0.00 0.00 56 1007.0
20260507130459 46 226 12.0 16.0 0.00 0.00 0.00 56 1007.0
20260507125957 46 248 9.0 13.0 0.00 0.00 0.00 60 1006.9
20260507125455 46 263 8.0 10.0 0.00 0.00 0.00 60 1006.9
20260507124952 46 238 6.0 7.0 0.00 0.00 0.00 61 1006.9
20260507124448 45 250 6.0 9.0 0.00 0.00 0.00 61 1007.1
20260507123947 46 266 6.0 8.0 0.00 0.00 0.00 60 1007.2
20260507123444 45 248 7.0 11.0 0.00 0.00 0.00 61 1007.4
20260507122940 45 267 7.0 9.0 0.00 0.00 0.00 61 1007.2
20260507122436 45 285 8.0 13.0 0.00 0.00 0.00 60 1007.0
20260507121932 45 259 11.0 14.0 0.00 0.00 0.00 62 1007.0
20260507121427 45 297 10.0 13.0 0.00 0.00 0.00 73 1007.5
20260507120924 45 250 6.0 8.0 0.00 0.00 0.00 77 1007.1
20260507120420 45 247 4.0 5.0 0.00 0.00 0.00 79 1007.2
20260507115917 45 228 4.0 6.0 0.00 0.00 0.00 80 1007.0
20260507115413 45 257 6.0 7.0 0.00 0.00 0.00 78 1006.8
20260507114909 45 270 7.0 9.0 0.00 0.00 0.00 79 1007.1
20260507114406 45 264 8.0 10.0 0.00 0.00 0.00 79 1007.0
20260507113903 45 259 9.0 13.0 0.00 0.00 0.00 80 1007.1
20260507113400 45 278 6.0 8.0 0.00 0.00 0.00 79 1006.9
20260507112857 45 265 11.0 14.0 0.00 0.00 0.00 79 1007.0
20260507112354 45 238 4.0 5.0 0.00 0.00 0.00 79 1006.9
20260507111852 45 243 5.0 6.0 0.00 0.00 0.00 80 1007.0
20260507111349 45 203 3.0 5.0 0.00 0.00 0.00 81 1007.0
20260507110845 45 182 2.0 5.0 0.00 0.00 0.00 81 1006.6
20260507110341 45 283 6.0 7.0 0.00 0.00 0.00 81 1006.6
20260507105838 45 263 11.0 13.0 0.00 0.00 0.00 81 1006.5
20260507105335 45 253 7.0 10.0 0.00 0.00 0.00 82 1006.4
20260507104832 45 239 8.0 10.0 0.00 0.00 0.00 82 1006.5
20260507104328 45 247 5.0 8.0 0.00 0.00 0.00 82 1006.6
20260507103824 45 282 3.0 5.0 0.00 0.00 0.00 81 1006.3
20260507103321 45 218 4.0 5.0 0.00 0.00 0.00 82 1006.2
20260507102817 45 259 6.0 9.0 0.00 0.00 0.00 83 1006.4
20260507102314 45 246 8.0 10.0 0.00 0.00 0.00 83 1006.3
20260507101810 45 237 6.0 7.0 0.00 0.00 0.00 83 1006.3
20260507101305 45 206 7.0 8.0 0.00 0.00 0.00 84 1006.4
20260507100802 45 280 7.0 8.0 0.00 0.00 0.00 84 1006.6
20260507100300 45 208 6.0 9.0 0.00 0.00 0.00 83 1006.5
20260507095758 45 252 10.0 13.0 0.00 0.00 0.00 83 1006.7
20260507095254 45 207 5.0 6.0 0.00 0.00 0.00 84 1006.4
20260507094751 45 265 5.0 8.0 0.00 0.00 0.00 83 1006.5
20260507094248 45 223 7.0 9.0 0.00 0.00 0.00 84 1006.4
20260507093745 45 272 4.0 7.0 0.00 0.00 0.00 84 1006.5
20260507093244 45 259 7.0 11.0 0.00 0.00 0.00 84 1006.2
20260507092741 45 266 6.0 8.0 0.00 0.00 0.00 84 1006.2
20260507092237 45 210 2.0 3.0 0.00 0.00 0.00 84 1006.3
20260507091734 45 242 4.0 5.0 0.00 0.00 0.00 84 1006.3
20260507091230 45 280 4.0 5.0 0.00 0.00 0.00 84 1006.4
20260507090725 45 207 5.0 6.0 0.00 0.00 0.00 85 1006.2
20260507090222 45 184 2.0 2.0 0.00 0.00 0.00 85 1006.4
20260507085720 45 179 2.0 3.0 0.00 0.00 0.00 85 1006.2
20260507085216 45 235 3.0 5.0 0.00 0.00 0.00 85 1006.4
20260507084713 45 266 6.0 8.0 0.00 0.00 0.00 85 1006.3
20260507084210 45 166 1.0 2.0 0.00 0.00 0.00 85 1006.4
20260507083707 45 197 1.0 2.0 0.00 0.00 0.00 85 1006.7
20260507083204 45 198 2.0 2.0 0.00 0.00 0.00 85 1006.4
20260507082700 45 173 2.0 2.0 0.00 0.00 0.00 85 1006.6
20260507082156 44 239 3.0 3.0 0.00 0.00 0.00 85 1006.7
20260507081653 44 200 3.0 5.0 0.00 0.00 0.00 85 1006.6
20260507081149 44 296 7.0 9.0 0.00 0.00 0.00 86 1006.8
20260507080646 44 209 3.0 5.0 0.00 0.00 0.00 86 1006.7
20260507080142 44 172 2.0 2.0 0.00 0.00 0.00 86 1006.9
20260507075643 43 166 2.0 3.0 0.00 0.00 0.00 87 1006.8
20260507075139 43 214 2.0 2.0 0.00 0.00 0.00 87 1006.9
20260507074636 43 165 3.0 3.0 0.00 0.00 0.00 87 1006.8
20260507074134 43 195 3.0 5.0 0.00 0.00 0.00 87 1006.8
20260507073630 43 196 2.0 2.0 0.00 0.00 0.00 87 1006.6
20260507073126 43 228 5.0 6.0 0.00 0.00 0.00 86 1006.7
20260507072624 43 199 3.0 5.0 0.00 0.00 0.00 87 1006.8
20260507072121 43 181 2.0 2.0 0.00 0.00 0.00 87 1006.8
20260507071619 43 163 0.0 1.0 0.00 0.00 0.00 87 1006.8
20260507071115 43 167 2.0 2.0 0.00 0.00 0.00 86 1006.8
20260507070612 43 205 7.0 8.0 0.00 0.00 0.00 86 1006.6
20260507070109 43 194 5.0 6.0 0.00 0.00 0.00 87 1007.0
20260507065605 43 174 3.0 3.0 0.00 0.00 0.00 87 1006.9
20260507065057 43 191 2.0 2.0 0.00 0.00 0.00 87 1006.7
20260507064555 43 182 1.0 1.0 0.00 0.00 0.00 87 1006.7
20260507064053 43 180 1.0 1.0 0.00 0.00 0.00 86 1007.1
20260507063550 43 243 1.0 2.0 0.00 0.00 0.00 86 1006.8
20260507063047 43 217 1.0 2.0 0.00 0.00 0.00 87 1006.8
20260507062544 43 223 3.0 3.0 0.00 0.00 0.00 86 1006.8
20260507062042 43 171 3.0 3.0 0.00 0.00 0.00 86 1007.1
20260507061539 44 197 0.0 1.0 0.00 0.00 0.00 85 1007.0
20260507061037 44 261 5.0 6.0 0.00 0.00 0.00 84 1006.9
20260507060535 44 222 3.0 3.0 0.00 0.00 0.00 84 1006.9
20260507060031 44 223 3.0 3.0 0.00 0.00 0.00 84 1007.0
20260507055531 43 163 2.0 3.0 0.00 0.00 0.00 85 1007.2
20260507055028 44 194 2.0 2.0 0.00 0.00 0.00 84 1007.1
20260507054524 43 245 5.0 7.0 0.00 0.00 0.00 85 1007.1
20260507054021 43 249 1.0 1.0 0.00 0.00 0.00 85 1007.4
20260507053519 43 211 1.0 2.0 0.00 0.00 0.00 85 1007.1
20260507053018 43 207 3.0 3.0 0.00 0.00 0.00 85 1007.2
20260507052515 43 210 2.0 2.0 0.00 0.00 0.00 85 1007.5
20260507052011 43 169 2.0 5.0 0.00 0.00 0.00 85 1007.5
20260507051509 43 212 1.0 2.0 0.00 0.00 0.00 85 1007.5
20260507051006 44 226 2.0 2.0 0.00 0.00 0.00 84 1007.6
20260507050502 44 202 3.0 3.0 0.00 0.00 0.00 83 1007.5
20260507045959 44 181 1.0 2.0 0.00 0.00 0.00 83 1007.6
20260507045455 44 182 3.0 3.0 0.00 0.00 0.00 84 1008.0
20260507044953 44 170 1.0 1.0 0.00 0.00 0.00 84 1007.8
20260507044449 44 255 3.0 3.0 0.00 0.00 0.00 83 1007.8
20260507043945 44 195 1.0 1.0 0.00 0.00 0.00 83 1008.0
20260507043442 44 175 1.0 2.0 0.00 0.00 0.00 83 1008.1
20260507042938 44 232 2.0 2.0 0.00 0.00 0.00 83 1008.1
20260507042435 43 181 2.0 2.0 0.00 0.00 0.00 85 1008.0
20260507041931 44 230 2.0 3.0 0.00 0.00 0.00 84 1008.1
20260507041428 44 232 4.0 5.0 0.00 0.00 0.00 84 1008.2
20260507040925 44 219 2.0 5.0 0.00 0.00 0.00 84 1008.3
20260507040421 44 206 2.0 2.0 0.00 0.00 0.00 83 1008.1
20260507035917 44 179 3.0 5.0 0.00 0.41 0.41 82 1008.1
20260507035413 44 205 4.0 5.0 0.00 0.41 0.41 82 1008.2
20260507034910 44 183 1.0 1.0 0.00 0.41 0.41 82 1008.4
20260507034407 44 242 4.0 5.0 0.00 0.41 0.41 81 1008.3
20260507033905 44 194 2.0 3.0 0.00 0.41 0.41 81 1008.3
20260507033403 45 177 2.0 2.0 0.00 0.41 0.41 81 1008.5
20260507032900 45 287 2.0 2.0 0.00 0.41 0.41 82 1008.2
20260507032356 45 234 2.0 5.0 0.00 0.41 0.41 82 1008.8
20260507031852 45 208 4.0 5.0 0.00 0.41 0.41 82 1008.4
20260507031349 45 243 4.0 5.0 0.00 0.41 0.41 81 1008.6
20260507030846 45 208 4.0 6.0 0.00 0.41 0.41 81 1008.2
20260507030344 45 195 2.0 2.0 0.00 0.41 0.41 81 1008.7
20260507025840 45 205 2.0 2.0 0.00 0.41 0.41 81 1008.6
20260507025338 45 209 2.0 2.0 0.00 0.41 0.41 81 1008.6
20260507024835 45 220 2.0 3.0 0.00 0.41 0.41 81 1008.6
20260507024332 45 266 3.0 3.0 0.00 0.41 0.41 80 1008.6
20260507023828 45 247 2.0 5.0 0.00 0.41 0.41 80 1008.8
20260507023325 45 263 3.0 3.0 0.00 0.41 0.41 80 1008.4
20260507022822 45 269 4.0 6.0 0.00 0.41 0.41 80 1008.8
20260507022319 45 261 4.0 6.0 0.00 0.41 0.41 80 1008.7
20260507021815 45 284 3.0 3.0 0.00 0.41 0.41 80 1009.0
20260507021311 45 257 3.0 3.0 0.00 0.41 0.41 79 1008.8
20260507020809 45 225 3.0 3.0 0.00 0.41 0.41 79 1008.8
20260507020305 45 263 4.0 5.0 0.00 0.41 0.41 78 1008.9
20260507015803 45 220 3.0 3.0 0.00 0.41 0.41 78 1009.0
20260507015300 45 201 1.0 2.0 0.00 0.41 0.41 78 1009.0
20260507014757 45 193 1.0 1.0 0.00 0.41 0.41 77 1009.1
20260507014253 45 261 3.0 3.0 0.00 0.41 0.41 75 1009.2
20260507013749 45 287 4.0 5.0 0.00 0.41 0.41 74 1009.0
20260507013247 45 263 3.0 3.0 0.00 0.41 0.41 73 1008.9
20260507012744 45 248 3.0 3.0 0.00 0.41 0.41 75 1008.8
20260507012244 45 197 3.0 3.0 0.00 0.41 0.41 77 1008.9
20260507011743 45 220 2.0 2.0 0.00 0.41 0.41 79 1009.0
20260507011239 45 215 2.0 2.0 0.00 0.41 0.41 81 1009.1
20260507010738 45 168 1.0 2.0 0.00 0.41 0.41 81 1008.9
20260507010234 45 185 1.0 1.0 0.00 0.41 0.41 82 1009.0
20260507005732 45 166 0.0 1.0 0.00 0.41 0.41 81 1008.7
20260507005229 45 180 1.0 1.0 0.00 0.41 0.41 81 1008.6
20260507004725 45 187 0.0 1.0 0.00 0.41 0.41 81 1008.6
20260507004223 45 167 0.0 1.0 0.00 0.41 0.41 83 1008.7
20260507003719 45 181 1.0 1.0 0.00 0.41 0.41 83 1008.6
20260507003214 45 175 0.0 1.0 0.00 0.41 0.41 82 1008.3
20260507002710 45 206 1.0 1.0 0.00 0.41 0.41 82 1008.5
20260507002207 45 178 1.0 1.0 0.00 0.41 0.41 82 1008.4
20260507001703 45 192 1.0 1.0 0.00 0.41 0.41 82 1008.2
20260507001201 45 246 2.0 2.0 0.00 0.41 0.41 81 1008.6
20260507000657 45 191 1.0 1.0 0.00 0.41 0.41 82 1008.4
20260507000153 46 171 0.0 0.0 0.00 0.41 0.41 81 1008.4
20260506235650 46 173 0.0 1.0 0.00 0.41 0.41 81 1008.4
20260506235145 46 197 1.0 1.0 0.00 0.41 0.41 80 1008.4
20260506234643 46 174 1.0 1.0 0.00 0.41 0.41 79 1008.2
20260506234139 46 179 0.0 0.0 0.00 0.41 0.41 79 1008.4
20260506233637 46 246 2.0 2.0 0.00 0.41 0.41 78 1008.2
20260506233134 46 187 1.0 1.0 0.00 0.41 0.41 78 1008.1
20260506232630 46 176 0.0 1.0 0.00 0.41 0.41 77 1008.3
20260506232125 47 175 0.0 1.0 0.00 0.41 0.41 76 1008.0
20260506231623 47 172 0.0 1.0 0.00 0.41 0.41 77 1008.1
20260506231121 47 173 0.0 0.0 0.00 0.41 0.41 75 1007.8
20260506230617 47 179 0.0 1.0 0.00 0.41 0.41 75 1008.1
20260506230115 47 180 0.0 0.0 0.00 0.41 0.41 75 1008.1
20260506225611 47 183 1.0 1.0 0.00 0.41 0.41 73 1008.1
20260506225107 47 195 1.0 1.0 0.00 0.41 0.41 74 1008.0
20260506224604 47 168 0.0 0.0 0.00 0.41 0.41 76 1008.2
20260506224101 47 174 1.0 1.0 0.00 0.41 0.41 75 1008.2
20260506223557 47 172 0.0 0.0 0.00 0.41 0.41 75 1008.1